Terminal Aerodrome Forecast
Issued by NWS

Home | Current Version | Previous Version | Text Only | Print | Product List | Glossary On
Versions: 1 2 3 4 5 6 7 8 9 10 11 12 13 14 15 16
000
FTUS43 KPAH 270520
TAFOWB
TAF
KOWB 270520Z 2706/2806 VRB03KT 6SM BR FEW100 BKN200
      TEMPO 2709/2713 3SM BR
     FM271500 20010G17KT P6SM SCT030 BKN200
     FM280000 17007KT P6SM SCT050 BKN150=

USA.gov is the U.S. government's official web portal to all federal, state and local government web resources and services.